Regional Weather Roundup
Issued by NWS

Home | Current Version | Previous Version | Text Only | Print | Product List | Glossary On
Versions: 1 2 3 4 5 6 7 8 9 10 11 12 13 14 15 16 17 18 19 20 21 22 23 24 25 26 27 28 29 30 31 32 33 34 35 36 37 38 39 40 41 42 43 44 45 46 47 48 49 50
000
ASUS42 KKEY 062010
RWRKEY

FLORIDA REGIONAL WEATHER ROUNDUP FOR THE FLORIDA KEYS
NATIONAL WEATHER SERVICE KEY WEST FLORIDA
400 PM EDT MON JUL 06 2015

...SOUTH FLORIDA AND THE KEYS...

CITY           SKY/WX    TMP DP  RH WIND       PRES   REMARKS
FORT MYERS     PTSUNNY   90  70  51 CALM      30.12S HX  95
SW REGIONAL AP MOSUNNY   90  70  51 CALM      30.12F HX  95
NAPLES         MOSUNNY   90  73  58 W7        30.11F HX  98
MIAMI          MOSUNNY   91  73  55 SE13G20   30.13F HX  99
WEST KENDALL   MOSUNNY   91  73  55 E13       30.13F HX  99
HOMESTEAD      PTSUNNY   90  75  62 E12       30.13F HX 100
MARATHON       MOSUNNY   91  78  65 SE7       30.12F HX 106
BOCA CHICA NAS MOSUNNY   90  76  63 E13       30.12F HX 101
KEY WEST INTL  SUNNY     90  78  68 SE9       30.12F HX 104

...INTERNATIONAL WEATHER...

CITY           SKY/WX    TMP DP  RH WIND       PRES   REMARKS
NASSAU BAHAMAS PTSUNNY   88  73  62 SE8       30.15F HX  96
CANCUN MEXICO  MOSUNNY   88  77  70 E10       30.09F HX 100
COZUMEL MEXICO MOSUNNY   86  75  70 SE9       30.07F HX  95

ADJACENT COASTAL WATERS...

STATION/POSITION TIME  SKY/WX   TEMP    WIND        PRES    WAVE
                                AIR SEA DIR/SP/G            HT/PER
                 (UTC)          (F)     (DEG/KT/KT) (MB)    (FT/S)
PULASKI SHOAL LI 1900            85      90/  8/  9 1020.3F
SAND KEY         1950            85     110/  8/ 10 1019.9F
SOMBRERO KEY     2000            86      80/  8/ 10 1020.7F
LONG KEY         2000            86 88  130/  8/ 10 1021.1S
MOLASSES REEF    2000            84 87  120/  8/  9 1020.5R
FOWEY ROCKS      NOT AVBL

$$



USA.gov is the U.S. government's official web portal to all federal, state and local government web resources and services.